Location: Lesignano de� Bagni
(44.6500°N, 10.3000°E)
Time: 15:26:11
(UTC+00:00)

Cosmos 2184 Rocket - Pass Details

Date: 03 March 2021
Orbit: 960 x 1001 km, 82.9° (Epoch: 18 April)

Event Time Altitude Azimuth Distance (km) Brightness Sun altitude
Rises 17:53:19 0° 189° (S) 3,628 7.1 -8.6°
Reaches altitude 10° 17:55:48 10° 190° (S) 2,687 6.5 -9.1°
Maximum altitude 18:01:57 82° 278° (W) 979 4.1 -10.1°
Drops below altitude 10° 18:08:12 10° 7° (N) 2,722 6.3 -11.3°
Sets 18:10:44 0° 8° (N) 3,679 7.0 -11.7°
